This is the latest recevied weather packets stored in our database for station/object N8WJW. If no packets are shown the sender has not sent any weather packets the latest 10 day(s).
| Time | Temp. | Humidity | Pressure | Rain* | Wind** | Luminosity | Snow |
|---|---|---|---|---|---|---|---|
| 1778111649 | 8.33° C | 73% | 1014.7 hPa | 0 mm | - | 10 W/m² | - |
| 1778111344 | 8.33° C | 72% | 1014.5 hPa | 0 mm | - | 10 W/m² | - |
| 1778111043 | 8.33° C | 72% | 1014.6 hPa | 0 mm | - | 10 W/m² | - |
| 1778110740 | 8.33° C | 70% | 1014.4 hPa | 0 mm | - | 12 W/m² | - |
| 1778110435 | 8.33° C | 71% | 1014.2 hPa | 0 mm | - | 16 W/m² | - |
| 1778110133 | 8.89° C | 73% | 1014.1 hPa | 0 mm | - | 22 W/m² | - |
| 1778109829 | 8.33° C | 71% | 1014.4 hPa | 0 mm | - | 22 W/m² | - |
| 1778109525 | 8.89° C | 73% | 1014.2 hPa | 0 mm | - | 25 W/m² | - |
| 1778109223 | 8.89° C | 71% | 1014.4 hPa | 0 mm | - | 24 W/m² | - |
| 1778108920 | 8.89° C | 69% | 1014.4 hPa | 0 mm | - | 31 W/m² | - |
| 1778108617 | 9.44° C | 70% | 1014.4 hPa | 0 mm | - | 49 W/m² | - |
| 1778108313 | 9.44° C | 70% | 1014.1 hPa | 0 mm | - | 57 W/m² | - |
| 1778108011 | 9.44° C | 68% | 1014.3 hPa | 0 mm | - | 57 W/m² | - |
| 1778107707 | 9.44° C | 72% | 1014.4 hPa | 0 mm | - | 57 W/m² | - |
| 1778107405 | 9.44° C | 70% | 1014.4 hPa | 0 mm | - | 65 W/m² | - |
| 1778107100 | 9.44° C | 70% | 1014.3 hPa | 0 mm | - | 64 W/m² | - |
| 1778106795 | 9.44° C | 67% | 1014.2 hPa | 0 mm | - | 60 W/m² | - |
| 1778106493 | 8.89° C | 67% | 1014.3 hPa | 0 mm | - | 54 W/m² | - |
| 1778106188 | 9.44° C | 68% | 1014.2 hPa | 0 mm | - | 55 W/m² | - |
| 1778105881 | 9.44° C | 69% | 1014.2 hPa | 0 mm | - | 54 W/m² | - |
| 1778105578 | 9.44° C | 67% | 1014.2 hPa | 0 mm | - | 66 W/m² | - |
| 1778105275 | 9.44° C | 67% | 1014.3 hPa | 0 mm | - | 47 W/m² | - |
| 1778104970 | 9.44° C | 66% | 1014.1 hPa | 0 mm | - | 56 W/m² | - |
| 1778104667 | 9.44° C | 63% | 1013.7 hPa | 0 mm | - | 75 W/m² | - |
| 1778104362 | 9.44° C | 68% | 1013.9 hPa | 0 mm | - | 78 W/m² | - |
* Rain latest hour (hover to see other rain measurements)
** Current wind speed in m/s (hover to see current wind gust speed)